"SCLK","SCET","ORBIT_NUMBER","ALTITUDE","LATITUDE_PLANEOGRAPHIC","LATITUDE_PLANETOCENTRIC","LOCAL_TRUE_SOLAR_TIME","WEST_LONGITUDE","X_SUN_DIR_DISTANCE","RHO_PRP_SUN_DISTANCE","SOLAR_ZENITH_ANGLE","ELECTRON_PLASMA_FREQUENCY","FPE_QUALITY","FPP_VERIFICATION","ELECTRON_PLASMA_DENSITY","ELECTRON_CYCLOTRON_PERIOD","FCP_QUALITY","B_MAGNITUDE"
"1/0365395497.54173",2014-11-30T02:45:01.770,13851,1564.00,41.00,40.74,"00:21:54",153.95,-1.230,0.790,147.14,1.20e+02,2,,1.79e+02,3.99e+00,1,8.95e+00
"1/0365395505.24223",2014-11-30T02:45:09.313,13851,1553.00,41.28,41.02,"00:22:02",153.95,-1.220,0.790,147.01,1.25e+02,2,,1.94e+02,,,
"1/0365395512.59809",2014-11-30T02:45:16.856,13851,1543.00,41.56,41.30,"00:19:52",153.96,-1.220,0.790,146.87,1.16e+02,2,,1.67e+02,4.22e+00,1,8.46e+00
"1/0365395520.29859",2014-11-30T02:45:24.399,13851,1532.00,41.85,41.58,"00:19:59",153.96,-1.210,0.790,146.73,1.03e+02,2,,1.32e+02,,,
"1/0365395527.65445",2014-11-30T02:45:31.942,13851,1521.00,42.13,41.87,"00:20:06",153.96,-1.210,0.790,146.58,1.12e+02,2,,1.56e+02,,,
"1/0365395535.35561",2014-11-30T02:45:39.486,13851,1510.00,42.42,42.15,"00:17:56",153.97,-1.200,0.790,146.44,1.13e+02,2,,1.58e+02,4.39e+00,1,8.13e+00
"1/0365395543.05611",2014-11-30T02:45:47.029,13851,1500.00,42.71,42.44,"00:18:03",153.97,-1.200,0.800,146.29,1.21e+02,2,,1.82e+02,4.48e+00,1,7.97e+00
"1/0365395550.41197",2014-11-30T02:45:54.572,13851,1489.00,43.00,42.73,"00:18:11",153.97,-1.190,0.800,146.14,1.26e+02,2,,1.97e+02,,,
"1/0365395558.11247",2014-11-30T02:46:02.115,13851,1478.00,43.29,43.02,"00:18:18",153.97,-1.190,0.800,145.99,1.26e+02,2,,1.97e+02,,,
"1/0365395565.46833",2014-11-30T02:46:09.658,13851,1468.00,43.58,43.31,"00:18:25",153.97,-1.180,0.800,145.83,1.31e+02,2,,2.13e+02,,,
"1/0365395573.16949",2014-11-30T02:46:17.202,13851,1457.00,43.87,43.60,"00:18:33",153.97,-1.180,0.800,145.68,1.28e+02,2,,2.03e+02,4.03e+00,1,8.86e+00
"1/0365395580.52535",2014-11-30T02:46:24.745,13851,1446.00,44.17,43.89,"00:18:40",153.97,-1.170,0.800,145.52,1.31e+02,2,,2.13e+02,4.05e+00,1,8.81e+00
"1/0365395588.22585",2014-11-30T02:46:32.288,13851,1436.00,44.46,44.19,"00:18:48",153.97,-1.170,0.800,145.36,1.23e+02,2,,1.88e+02,3.74e+00,1,9.56e+00
"1/0365395595.58171",2014-11-30T02:46:39.831,13851,1425.00,44.76,44.48,"00:18:55",153.97,-1.160,0.810,145.19,1.26e+02,2,,1.97e+02,3.78e+00,1,9.45e+00
"1/0365395603.28221",2014-11-30T02:46:47.374,13851,1415.00,45.05,44.78,"00:19:02",153.97,-1.160,0.810,145.03,1.18e+02,2,,1.73e+02,3.78e+00,1,9.45e+00
"1/0365395610.63872",2014-11-30T02:46:54.918,13851,1404.00,45.35,45.08,"00:19:10",153.97,-1.160,0.810,144.86,1.26e+02,2,,1.97e+02,3.99e+00,1,8.95e+00
"1/0365395618.33922",2014-11-30T02:47:02.461,13851,1394.00,45.65,45.38,"00:19:17",153.97,-1.150,0.810,144.69,1.23e+02,2,,1.88e+02,4.12e+00,1,8.67e+00
"1/0365395626.03972",2014-11-30T02:47:10.004,13851,1383.00,45.96,45.68,"00:19:24",153.97,-1.150,0.810,144.52,1.26e+02,2,,1.97e+02,,,
"1/0365395633.39558",2014-11-30T02:47:17.547,13851,1373.00,46.26,45.98,"00:21:49",153.96,-1.140,0.810,144.34,1.39e+02,2,,2.40e+02,,,
"1/0365395641.09608",2014-11-30T02:47:25.090,13851,1363.00,46.56,46.29,"00:21:56",153.96,-1.140,0.820,144.16,1.50e+02,2,,2.79e+02,4.61e+00,1,7.75e+00
"1/0365395648.45260",2014-11-30T02:47:32.634,13851,1352.00,46.87,46.59,"00:22:04",153.96,-1.130,0.820,143.98,1.44e+02,2,,2.57e+02,,,
"1/0365395656.15310",2014-11-30T02:47:40.177,13851,1342.00,47.18,46.90,"00:24:29",153.95,-1.130,0.820,143.80,1.34e+02,2,,2.23e+02,,,
"1/0365395663.50896",2014-11-30T02:47:47.720,13851,1331.00,47.48,47.20,"00:24:36",153.95,-1.120,0.820,143.62,1.38e+02,2,,2.36e+02,4.35e+00,1,8.21e+00
"1/0365395671.20946",2014-11-30T02:47:55.263,13851,1321.00,47.79,47.51,"00:27:01",153.94,-1.110,0.820,143.43,1.39e+02,2,,2.40e+02,4.33e+00,1,8.25e+00
"1/0365395678.56532",2014-11-30T02:48:02.806,13851,1311.00,48.10,47.82,"00:29:26",153.93,-1.110,0.820,143.25,1.32e+02,2,,2.16e+02,4.29e+00,1,8.33e+00
"1/0365395686.26648",2014-11-30T02:48:10.350,13851,1301.00,48.42,48.14,"00:29:33",153.93,-1.100,0.830,143.05,1.31e+02,2,,2.13e+02,,,
"1/0365395693.62234",2014-11-30T02:48:17.893,13851,1291.00,48.73,48.45,"00:31:58",153.92,-1.100,0.830,142.86,9.50e+01,2,,1.12e+02,,,
"1/0365395701.32284",2014-11-30T02:48:25.436,13851,1280.00,49.04,48.76,"00:34:23",153.91,-1.090,0.830,142.67,7.80e+01,2,,7.54e+01,3.99e+00,1,8.95e+00
"1/0365395709.02334",2014-11-30T02:48:32.979,13851,1270.00,49.36,49.08,"00:36:47",153.90,-1.090,0.830,142.47,8.50e+01,2,,8.96e+01,,,
"1/0365395716.37920",2014-11-30T02:48:40.522,13851,1260.00,49.68,49.40,"00:39:12",153.89,-1.080,0.830,142.27,8.80e+01,2,,9.60e+01,4.22e+00,1,8.46e+00
"1/0365395724.08035",2014-11-30T02:48:48.066,13851,1250.00,50.00,49.72,"00:41:37",153.88,-1.080,0.840,142.07,9.20e+01,2,,1.05e+02,,,
"1/0365395731.43621",2014-11-30T02:48:55.609,13851,1240.00,50.32,50.04,"00:44:02",153.87,-1.070,0.840,141.86,9.70e+01,2,,1.17e+02,,,
"1/0365395739.13671",2014-11-30T02:49:03.152,13851,1230.00,50.64,50.36,"00:46:27",153.86,-1.070,0.840,141.66,1.01e+02,2,,1.26e+02,4.16e+00,1,8.59e+00
"1/0365395746.49257",2014-11-30T02:49:10.695,13851,1220.00,50.96,50.68,"00:48:52",153.85,-1.060,0.840,141.45,9.90e+01,2,,1.22e+02,4.10e+00,1,8.72e+00
"1/0365395754.19307",2014-11-30T02:49:18.238,13851,1210.00,51.29,51.00,"00:53:34",153.83,-1.060,0.840,141.24,1.03e+02,2,,1.32e+02,,,
"1/0365395761.54959",2014-11-30T02:49:25.782,13851,1200.00,51.61,51.33,"00:55:59",153.82,-1.050,0.850,141.02,9.50e+01,2,,1.12e+02,3.86e+00,1,9.25e+00
"1/0365395769.25009",2014-11-30T02:49:33.325,13851,1190.00,51.94,51.66,"01:00:41",153.80,-1.050,0.850,140.81,9.40e+01,2,,1.10e+02,3.76e+00,1,9.51e+00
"1/0365395776.60595",2014-11-30T02:49:40.868,13851,1180.00,52.27,51.99,"01:03:06",153.79,-1.040,0.850,140.59,9.80e+01,2,,1.19e+02,3.67e+00,1,9.73e+00
"1/0365395784.30645",2014-11-30T02:49:48.411,13851,1171.00,52.60,52.32,"01:07:49",153.77,-1.030,0.850,140.37,1.00e+02,2,,1.24e+02,3.52e+00,1,1.01e+01
"1/0365395792.00695",2014-11-30T02:49:55.954,13851,1161.00,52.93,52.65,"01:12:31",153.75,-1.030,0.850,140.15,1.01e+02,2,,1.26e+02,3.52e+00,1,1.01e+01
"1/0365395799.36347",2014-11-30T02:50:03.498,13851,1151.00,53.26,52.98,"01:17:13",153.73,-1.020,0.860,139.93,1.04e+02,2,,1.34e+02,3.40e+00,1,1.05e+01
"1/0365395807.06397",2014-11-30T02:50:11.041,13851,1141.00,53.59,53.31,"01:21:56",153.71,-1.020,0.860,139.70,1.05e+02,2,,1.37e+02,3.27e+00,1,1.09e+01
"1/0365395814.41983",2014-11-30T02:50:18.584,13851,1132.00,53.93,53.65,"01:26:38",153.69,-1.010,0.860,139.47,1.08e+02,2,,1.45e+02,3.23e+00,1,1.11e+01
"1/0365395822.12033",2014-11-30T02:50:26.127,13851,1122.00,54.27,53.99,"01:31:20",153.67,-1.010,0.860,139.24,1.07e+02,2,,1.42e+02,3.16e+00,1,1.13e+01
"1/0365395829.47619",2014-11-30T02:50:33.670,13851,1113.00,54.60,54.33,"01:36:03",153.65,-1.000,0.860,139.01,1.11e+02,2,,1.53e+02,3.17e+00,1,1.13e+01
"1/0365395837.17734",2014-11-30T02:50:41.214,13851,1103.00,54.94,54.67,"01:43:03",153.62,-1.000,0.870,138.77,1.13e+02,2,,1.58e+02,3.10e+00,2,1.15e+01
"1/0365395844.53320",2014-11-30T02:50:48.757,13851,1093.00,55.28,55.01,"01:47:45",153.60,-0.990,0.870,138.53,1.16e+02,2,,1.67e+02,3.11e+00,2,1.15e+01
"1/0365395852.23370",2014-11-30T02:50:56.300,13851,1084.00,55.63,55.35,"01:54:45",153.57,-0.980,0.870,138.30,1.18e+02,2,,1.73e+02,3.09e+00,2,1.16e+01
"1/0365395859.58956",2014-11-30T02:51:03.843,13851,1075.00,55.97,55.69,"02:01:45",153.54,-0.980,0.870,138.05,1.19e+02,2,,1.76e+02,3.05e+00,1,1.17e+01
"1/0365395867.29006",2014-11-30T02:51:11.386,13851,1065.00,56.31,56.04,"02:06:27",153.52,-0.970,0.880,137.81,1.15e+02,2,,1.64e+02,2.97e+00,2,1.20e+01
"1/0365395874.64658",2014-11-30T02:51:18.930,13851,1056.00,56.66,56.39,"02:15:44",153.48,-0.970,0.880,137.56,1.14e+02,2,,1.61e+02,2.96e+00,1,1.21e+01
"1/0365395882.34708",2014-11-30T02:51:26.473,13851,1047.00,57.01,56.74,"02:22:44",153.45,-0.960,0.880,137.31,1.16e+02,2,,1.67e+02,2.95e+00,2,1.21e+01
"1/0365395890.04758",2014-11-30T02:51:34.016,13851,1037.00,57.36,57.09,"02:29:44",153.42,-0.950,0.880,137.06,1.13e+02,2,,1.58e+02,2.95e+00,1,1.21e+01
"1/0365395897.40344",2014-11-30T02:51:41.559,13851,1028.00,57.71,57.44,"02:36:44",153.39,-0.950,0.890,136.81,1.14e+02,2,,1.61e+02,2.96e+00,1,1.21e+01
"1/0365395905.10394",2014-11-30T02:51:49.102,13851,1019.00,58.06,57.79,"02:46:01",153.35,-0.940,0.890,136.56,1.11e+02,2,,1.53e+02,2.94e+00,1,1.21e+01
"1/0365395912.46046",2014-11-30T02:51:56.646,13851,1010.00,58.41,58.14,"02:55:19",153.31,-0.940,0.890,136.30,1.04e+02,2,,1.34e+02,3.07e+00,1,1.16e+01
"1/0365395920.16096",2014-11-30T02:52:04.189,13851,1001.00,58.77,58.50,"03:04:36",153.27,-0.930,0.890,136.04,1.14e+02,2,,1.61e+02,3.14e+00,1,1.14e+01
"1/0365395927.51682",2014-11-30T02:52:11.732,13851,992.00,59.12,58.86,"03:13:53",153.23,-0.930,0.890,135.78,1.19e+02,2,,1.76e+02,3.28e+00,1,1.09e+01
"1/0365395935.21732",2014-11-30T02:52:19.275,13851,983.00,59.48,59.22,"03:23:11",153.19,-0.920,0.900,135.52,1.18e+02,2,,1.73e+02,3.24e+00,2,1.10e+01
"1/0365395942.57383",2014-11-30T02:52:26.819,13851,974.00,59.84,59.58,"03:34:46",153.14,-0.910,0.900,135.25,1.12e+02,2,,1.56e+02,3.25e+00,1,1.10e+01
"1/0365395950.27433",2014-11-30T02:52:34.362,13851,965.00,60.20,59.94,"03:44:03",153.10,-0.910,0.900,134.98,1.17e+02,2,,1.70e+02,3.28e+00,1,1.09e+01
"1/0365395957.63019",2014-11-30T02:52:41.905,13851,956.00,60.56,60.30,"03:55:38",153.05,-0.900,0.900,134.71,1.20e+02,2,,1.79e+02,3.33e+00,2,1.07e+01
"1/0365395965.33069",2014-11-30T02:52:49.448,13851,947.00,60.93,60.67,"04:07:13",153.00,-0.890,0.910,134.44,1.28e+02,2,,2.03e+02,3.42e+00,1,1.05e+01
"1/0365395973.03119",2014-11-30T02:52:56.991,13851,938.00,61.29,61.03,"04:21:05",152.94,-0.890,0.910,134.17,1.33e+02,2,,2.19e+02,,,
"1/0365395980.38771",2014-11-30T02:53:04.535,13851,930.00,61.66,61.40,"04:32:40",152.89,-0.880,0.910,133.89,1.35e+02,2,,2.26e+02,,,
"1/0365395988.08821",2014-11-30T02:53:12.078,13851,921.00,62.02,61.77,"04:46:33",152.83,-0.880,0.910,133.61,1.46e+02,2,,2.64e+02,3.56e+00,2,1.00e+01
"1/0365395995.44407",2014-11-30T02:53:19.621,13851,912.00,62.39,62.14,"05:00:25",152.77,-0.870,0.920,133.33,1.53e+02,2,,2.90e+02,3.47e+00,2,1.03e+01
"1/0365396003.14457",2014-11-30T02:53:27.164,13851,904.00,62.76,62.51,"05:14:17",152.71,-0.860,0.920,133.05,1.49e+02,2,,2.75e+02,3.40e+00,2,1.05e+01
"1/0365396010.50043",2014-11-30T02:53:34.707,13851,895.00,63.13,62.88,"05:30:27",152.64,-0.860,0.920,132.77,1.51e+02,2,,2.83e+02,3.44e+00,2,1.04e+01
"1/0365396018.20159",2014-11-30T02:53:42.251,13851,887.00,63.51,63.26,"05:46:37",152.57,-0.850,0.920,132.48,1.52e+02,2,,2.87e+02,3.53e+00,2,1.01e+01
"1/0365396025.55745",2014-11-30T02:53:49.794,13851,878.00,63.88,63.64,"06:02:47",152.50,-0.840,0.930,132.19,1.48e+02,2,,2.72e+02,3.56e+00,2,1.00e+01
"1/0365396033.25795",2014-11-30T02:53:57.337,13851,870.00,64.26,64.01,"06:21:15",152.42,-0.840,0.930,131.90,1.45e+02,2,,2.61e+02,3.59e+00,1,9.96e+00
"1/0365396040.61381",2014-11-30T02:54:04.880,13851,862.00,64.63,64.39,"06:37:24",152.35,-0.830,0.930,131.61,1.48e+02,2,,2.72e+02,3.65e+00,1,9.78e+00
"1/0365396048.31431",2014-11-30T02:54:12.423,13851,853.00,65.01,64.77,"06:58:09",152.26,-0.830,0.930,131.31,1.52e+02,2,,2.87e+02,3.62e+00,1,9.87e+00
"1/0365396056.01546",2014-11-30T02:54:19.967,13851,845.00,65.39,65.15,"07:16:37",152.18,-0.820,0.940,131.02,1.54e+02,2,,2.94e+02,3.63e+00,2,9.84e+00
"1/0365396063.37132",2014-11-30T02:54:27.510,13851,837.00,65.77,65.54,"07:37:22",152.09,-0.810,0.940,130.72,1.51e+02,2,,2.83e+02,3.66e+00,1,9.75e+00
"1/0365396071.07182",2014-11-30T02:54:35.053,13851,829.00,66.15,65.92,"07:58:07",152.00,-0.810,0.940,130.42,1.48e+02,2,,2.72e+02,3.64e+00,1,9.81e+00
"1/0365396078.42768",2014-11-30T02:54:42.596,13851,821.00,66.54,66.31,"08:21:09",151.90,-0.800,0.940,130.11,1.45e+02,2,,2.61e+02,3.69e+00,1,9.67e+00
"1/0365396086.12818",2014-11-30T02:54:50.139,13851,813.00,66.92,66.70,"08:44:11",151.80,-0.790,0.950,129.81,1.38e+02,2,,2.36e+02,3.69e+00,1,9.67e+00
"1/0365396093.48470",2014-11-30T02:54:57.683,13851,805.00,67.31,67.08,"09:09:31",151.69,-0.790,0.950,129.50,1.36e+02,2,,2.29e+02,3.67e+00,1,9.73e+00
"1/0365396101.18520",2014-11-30T02:55:05.226,13851,797.00,67.70,67.47,"09:34:51",151.58,-0.780,0.950,129.20,1.34e+02,2,,2.23e+02,3.63e+00,1,9.84e+00
"1/0365396108.54106",2014-11-30T02:55:12.769,13851,789.00,68.09,67.87,"10:02:29",151.46,-0.770,0.950,128.88,1.33e+02,2,,2.19e+02,3.50e+00,2,1.02e+01
"1/0365396116.24156",2014-11-30T02:55:20.312,13851,781.00,68.48,68.26,"10:30:06",151.34,-0.770,0.960,128.57,1.32e+02,2,,2.16e+02,3.42e+00,2,1.05e+01
"1/0365396123.59742",2014-11-30T02:55:27.855,13851,774.00,68.87,68.65,"11:00:01",151.21,-0.760,0.960,128.26,1.29e+02,2,,2.06e+02,,,
"1/0365396131.29858",2014-11-30T02:55:35.399,13851,766.00,69.26,69.05,"11:32:14",151.07,-0.750,0.960,127.94,1.29e+02,2,,2.06e+02,3.38e+00,2,1.06e+01
"1/0365396138.65444",2014-11-30T02:55:42.942,13851,758.00,69.65,69.45,"12:04:26",150.93,-0.750,0.960,127.62,1.33e+02,2,,2.19e+02,3.34e+00,2,1.07e+01
"1/0365396146.35494",2014-11-30T02:55:50.485,13851,751.00,70.05,69.84,"12:38:56",150.78,-0.740,0.960,127.30,1.38e+02,2,,2.36e+02,3.28e+00,1,1.09e+01
"1/0365396154.05544",2014-11-30T02:55:58.028,13851,743.00,70.45,70.24,"13:15:44",150.62,-0.730,0.970,126.98,1.41e+02,2,,2.47e+02,3.22e+00,1,1.11e+01
"1/0365396161.41130",2014-11-30T02:56:05.571,13851,736.00,70.84,70.64,"13:52:31",150.46,-0.730,0.970,126.66,1.44e+02,2,,2.57e+02,3.11e+00,2,1.15e+01
"1/0365396169.11245",2014-11-30T02:56:13.115,13851,729.00,71.24,71.05,"14:33:54",150.28,-0.720,0.970,126.33,1.39e+02,2,,2.40e+02,3.01e+00,1,1.18e+01
"1/0365396176.46831",2014-11-30T02:56:20.658,13851,721.00,71.64,71.45,"15:15:16",150.10,-0.710,0.970,126.00,1.44e+02,2,,2.57e+02,3.04e+00,2,1.18e+01
"1/0365396184.16881",2014-11-30T02:56:28.201,13851,714.00,72.04,71.85,"15:58:56",149.91,-0.700,0.980,125.67,1.37e+02,2,,2.33e+02,3.02e+00,1,1.18e+01
"1/0365396191.52467",2014-11-30T02:56:35.744,13851,707.00,72.45,72.26,"16:47:11",149.70,-0.700,0.980,125.34,1.34e+02,2,,2.23e+02,2.92e+00,1,1.22e+01
"1/0365396199.22517",2014-11-30T02:56:43.287,13851,700.00,72.85,72.67,"17:35:26",149.49,-0.690,0.980,125.01,1.34e+02,2,,2.23e+02,2.84e+00,1,1.26e+01
"1/0365396206.58169",2014-11-30T02:56:50.831,13851,693.00,73.25,73.07,"18:28:16",149.26,-0.680,0.980,124.67,1.32e+02,2,,2.16e+02,2.80e+00,1,1.27e+01
"1/0365396214.28219",2014-11-30T02:56:58.374,13851,686.00,73.66,73.48,"19:23:24",149.02,-0.680,0.990,124.34,1.41e+02,2,,2.47e+02,2.77e+00,2,1.29e+01
"1/0365396221.63805",2014-11-30T02:57:05.917,13851,679.00,74.06,73.89,"20:23:07",148.76,-0.670,0.990,124.00,1.40e+02,2,,2.43e+02,2.72e+00,2,1.31e+01
"1/0365396229.33855",2014-11-30T02:57:13.460,13851,672.00,74.47,74.30,"21:25:07",148.49,-0.660,0.990,123.66,1.42e+02,2,,2.50e+02,2.63e+00,2,1.36e+01
"1/0365396237.03905",2014-11-30T02:57:21.003,13851,666.00,74.88,74.71,"22:31:42",148.20,-0.660,0.990,123.32,1.47e+02,2,,2.68e+02,2.60e+00,1,1.37e+01
"1/0365396244.39557",2014-11-30T02:57:28.547,13851,659.00,75.29,75.13,"23:40:34",147.90,-0.650,1.000,122.97,1.51e+02,2,,2.83e+02,2.56e+00,2,1.40e+01
"1/0365396252.09607",2014-11-30T02:57:36.090,13851,652.00,75.70,75.54,"00:56:20",147.57,-0.640,1.000,122.63,1.51e+02,2,,2.83e+02,2.56e+00,2,1.40e+01
"1/0365396259.45193",2014-11-30T02:57:43.633,13851,646.00,76.11,75.96,"02:16:40",147.22,-0.630,1.000,122.28,1.53e+02,2,,2.90e+02,2.47e+00,2,1.44e+01
"1/0365396267.15243",2014-11-30T02:57:51.176,13851,639.00,76.52,76.37,"03:41:35",146.85,-0.630,1.000,121.93,1.52e+02,2,,2.87e+02,2.45e+00,2,1.46e+01
"1/0365396274.50829",2014-11-30T02:57:58.719,13851,633.00,76.93,76.79,"05:13:23",146.45,-0.620,1.000,121.58,1.50e+02,2,,2.79e+02,2.41e+00,2,1.48e+01
"1/0365396282.20944",2014-11-30T02:58:06.263,13851,626.00,77.34,77.20,"06:52:03",146.02,-0.610,1.010,121.23,1.49e+02,2,,2.75e+02,2.40e+00,2,1.49e+01
"1/0365396289.56530",2014-11-30T02:58:13.806,13851,620.00,77.76,77.62,"08:37:36",145.56,-0.610,1.010,120.87,1.51e+02,2,,2.83e+02,2.39e+00,2,1.50e+01
"1/0365396297.26580",2014-11-30T02:58:21.349,13851,614.00,78.17,78.04,"10:30:01",145.07,-0.600,1.010,120.51,1.54e+02,2,,2.94e+02,2.41e+00,2,1.48e+01
"1/0365396304.62166",2014-11-30T02:58:28.892,13851,608.00,78.58,78.45,"12:31:36",144.54,-0.590,1.010,120.16,1.63e+02,2,,3.29e+02,2.43e+00,1,1.47e+01
"1/0365396312.32216",2014-11-30T02:58:36.435,13851,602.00,79.00,78.87,"14:44:39",143.96,-0.580,1.020,119.80,1.64e+02,2,,3.34e+02,2.46e+00,2,1.45e+01
"1/0365396320.02332",2014-11-30T02:58:43.979,13851,596.00,79.41,79.29,"17:09:10",143.33,-0.580,1.020,119.44,1.59e+02,2,,3.14e+02,2.41e+00,2,1.48e+01
"1/0365396327.37918",2014-11-30T02:58:51.522,13851,590.00,79.82,79.71,"19:45:08",142.65,-0.570,1.020,119.07,1.61e+02,2,,3.21e+02,2.40e+00,2,1.49e+01
"1/0365396335.07968",2014-11-30T02:58:59.065,13851,584.00,80.24,80.12,"22:34:51",141.91,-0.560,1.020,118.71,1.60e+02,2,,3.17e+02,2.47e+00,2,1.44e+01
"1/0365396342.43554",2014-11-30T02:59:06.608,13851,578.00,80.65,80.54,"01:40:37",141.10,-0.550,1.020,118.34,1.54e+02,2,,2.94e+02,2.40e+00,2,1.49e+01
"1/0365396350.13604",2014-11-30T02:59:14.151,13851,573.00,81.06,80.95,"05:04:42",140.21,-0.550,1.030,117.98,1.66e+02,2,,3.42e+02,2.39e+00,2,1.50e+01
"1/0365396357.49256",2014-11-30T02:59:21.695,13851,567.00,81.47,81.37,"08:51:43",139.22,-0.540,1.030,117.61,1.62e+02,2,,3.25e+02,2.25e+00,2,1.59e+01
"1/0365396365.19306",2014-11-30T02:59:29.238,13851,562.00,81.88,81.78,"12:59:21",138.14,-0.530,1.030,117.24,1.63e+02,2,,3.29e+02,2.24e+00,2,1.60e+01
"1/0365396372.54892",2014-11-30T02:59:36.781,13851,556.00,82.28,82.19,"17:36:48",136.93,-0.520,1.030,116.87,1.48e+02,2,,2.72e+02,2.28e+00,2,1.57e+01
"1/0365396380.24942",2014-11-30T02:59:44.324,13851,551.00,82.68,82.60,"22:46:19",135.58,-0.520,1.030,116.49,1.48e+02,2,,2.72e+02,2.31e+00,2,1.54e+01
"1/0365396387.60528",2014-11-30T02:59:51.867,13851,545.00,83.08,83.00,"04:30:13",134.08,-0.510,1.040,116.12,1.56e+02,2,,3.02e+02,2.36e+00,2,1.52e+01
"1/0365396395.30643",2014-11-30T02:59:59.411,13851,540.00,83.48,83.40,"10:59:57",132.38,-0.500,1.040,115.74,1.50e+02,2,,2.79e+02,2.37e+00,2,1.51e+01
"1/0365396403.00693",2014-11-30T03:00:06.954,13851,535.00,83.87,83.79,"18:22:23",130.45,-0.490,1.040,115.36,1.49e+02,2,,2.75e+02,2.38e+00,2,1.50e+01
"1/0365396410.36279",2014-11-30T03:00:14.497,13851,530.00,84.25,84.18,"02:44:25",128.26,-0.490,1.040,114.99,1.47e+02,2,,2.68e+02,2.39e+00,2,1.50e+01
"1/0365396418.06329",2014-11-30T03:00:22.040,13851,525.00,84.62,84.55,"12:19:48",125.75,-0.480,1.040,114.61,1.47e+02,2,,2.68e+02,2.39e+00,2,1.50e+01
"1/0365396425.41915",2014-11-30T03:00:29.583,13851,520.00,84.98,84.92,"23:22:15",122.86,-0.470,1.050,114.22,1.59e+02,2,,3.14e+02,2.39e+00,2,1.50e+01
"1/0365396433.12031",2014-11-30T03:00:37.127,13851,515.00,85.33,85.27,"12:07:51",119.52,-0.460,1.050,113.84,1.56e+02,2,,3.02e+02,2.38e+00,2,1.50e+01
"1/0365396440.47617",2014-11-30T03:00:44.670,13851,511.00,85.66,85.60,"02:54:55",115.65,-0.460,1.050,113.46,1.63e+02,2,,3.29e+02,2.42e+00,2,1.48e+01
"1/0365396448.17667",2014-11-30T03:00:52.213,13851,506.00,85.97,85.91,"20:06:21",111.15,-0.450,1.050,113.07,1.74e+02,2,,3.75e+02,2.45e+00,2,1.46e+01
"1/0365396455.53253",2014-11-30T03:00:59.756,13851,501.00,86.24,86.20,"16:00:31",105.94,-0.440,1.050,112.68,1.54e+02,2,,2.94e+02,2.37e+00,2,1.51e+01
"1/0365396463.23369",2014-11-30T03:01:07.300,13851,497.00,86.49,86.44,"14:58:02",99.93,-0.430,1.050,112.29,1.58e+02,2,,3.10e+02,2.37e+00,2,1.51e+01
"1/0365396470.58955",2014-11-30T03:01:14.843,13851,493.00,86.69,86.64,"17:05:46",93.09,-0.420,1.060,111.90,1.58e+02,2,,3.10e+02,2.35e+00,2,1.52e+01
"1/0365396478.29005",2014-11-30T03:01:22.386,13851,488.00,86.83,86.79,"22:07:41",85.49,-0.420,1.060,111.51,1.62e+02,2,,3.25e+02,2.28e+00,2,1.57e+01
"1/0365396485.64591",2014-11-30T03:01:29.929,13851,484.00,86.92,86.88,"05:27:06",77.29,-0.410,1.060,111.12,1.68e+02,2,,3.50e+02,2.32e+00,1,1.54e+01
"1/0365396493.34641",2014-11-30T03:01:37.472,13851,480.00,86.94,86.90,"13:55:17",68.79,-0.400,1.060,110.73,1.66e+02,2,,3.42e+02,2.32e+00,2,1.54e+01
"1/0365396501.04756",2014-11-30T03:01:45.016,13851,476.00,86.89,86.85,"22:07:25",60.36,-0.390,1.060,110.33,1.54e+02,2,,2.94e+02,2.28e+00,2,1.57e+01
"1/0365396508.40342",2014-11-30T03:01:52.559,13851,472.00,86.77,86.73,"04:45:36",52.34,-0.390,1.060,109.94,1.44e+02,2,,2.57e+02,2.26e+00,2,1.58e+01
"1/0365396516.10392",2014-11-30T03:02:00.102,13851,468.00,86.60,86.56,"08:52:30",44.98,-0.380,1.070,109.54,1.64e+02,2,,3.34e+02,2.30e+00,2,1.55e+01
"1/0365396523.45978",2014-11-30T03:02:07.645,13851,464.00,86.38,86.33,"09:53:47",38.43,-0.370,1.070,109.14,1.74e+02,2,,3.75e+02,,,
"1/0365396531.16028",2014-11-30T03:02:15.188,13851,460.00,86.11,86.06,"07:47:07",32.70,-0.360,1.070,108.74,1.73e+02,2,,3.71e+02,2.27e+00,2,1.57e+01
"1/0365396538.51680",2014-11-30T03:02:22.732,13851,457.00,85.81,85.76,"02:46:17",27.73,-0.350,1.070,108.34,1.53e+02,2,,2.90e+02,2.21e+00,1,1.62e+01
"1/0365396546.21730",2014-11-30T03:02:30.275,13851,453.00,85.48,85.42,"19:05:01",23.46,-0.350,1.070,107.94,1.80e+02,2,,4.02e+02,2.29e+00,2,1.56e+01
"1/0365396553.57316",2014-11-30T03:02:37.818,13851,450.00,85.13,85.07,"09:08:32",19.78,-0.340,1.070,107.54,1.86e+02,2,,4.29e+02,2.30e+00,2,1.55e+01
"1/0365396561.27366",2014-11-30T03:02:45.361,13851,446.00,84.76,84.69,"21:15:10",16.61,-0.330,1.080,107.14,1.82e+02,2,,4.11e+02,2.26e+00,2,1.58e+01
"1/0365396568.62952",2014-11-30T03:02:52.904,13851,443.00,84.37,84.30,"07:45:32",13.86,-0.320,1.080,106.73,1.73e+02,2,,3.71e+02,2.26e+00,2,1.58e+01
"1/0365396576.33068",2014-11-30T03:03:00.448,13851,440.00,83.98,83.90,"16:53:24",11.47,-0.310,1.080,106.33,1.63e+02,2,,3.29e+02,2.30e+00,2,1.55e+01
"1/0365396584.03118",2014-11-30T03:03:07.991,13851,437.00,83.57,83.49,"00:54:49",9.37,-0.310,1.080,105.92,1.69e+02,2,,3.54e+02,2.32e+00,2,1.54e+01
"1/0365396591.38704",2014-11-30T03:03:15.534,13851,434.00,83.15,83.07,"07:56:38",7.53,-0.300,1.080,105.51,1.84e+02,2,,4.20e+02,2.37e+00,2,1.51e+01
"1/0365396599.08754",2014-11-30T03:03:23.077,13851,431.00,82.73,82.64,"14:12:37",5.89,-0.290,1.080,105.10,1.98e+02,2,,4.86e+02,2.40e+00,1,1.49e+01
"1/0365396606.44340",2014-11-30T03:03:30.620,13851,428.00,82.30,82.21,"19:45:03",4.44,-0.280,1.080,104.70,1.90e+02,2,,4.48e+02,2.36e+00,1,1.52e+01
"1/0365396614.14455",2014-11-30T03:03:38.164,13851,425.00,81.87,81.77,"00:40:49",3.15,-0.270,1.080,104.29,1.64e+02,2,,3.34e+02,2.40e+00,1,1.49e+01
"1/0365396621.50041",2014-11-30T03:03:45.707,13851,423.00,81.43,81.33,"05:09:05",1.98,-0.270,1.090,103.87,1.70e+02,2,,3.58e+02,2.37e+00,2,1.51e+01
"1/0365396629.20091",2014-11-30T03:03:53.250,13851,420.00,80.99,80.88,"09:09:51",0.93,-0.260,1.090,103.46,1.69e+02,2,,3.54e+02,2.23e+00,1,1.60e+01
"1/0365396636.55677",2014-11-30T03:04:00.793,13851,418.00,80.54,80.43,"05:41:47",359.98,-0.250,1.090,103.05,1.35e+02,2,,2.26e+02,2.14e+00,2,1.67e+01
"1/0365396644.25727",2014-11-30T03:04:08.336,13851,415.00,80.10,79.98,"08:59:00",359.12,-0.240,1.090,102.64,1.60e+02,2,,3.17e+02,2.07e+00,1,1.73e+01
"1/0365396651.61379",2014-11-30T03:04:15.880,13851,413.00,79.64,79.52,"12:00:10",358.33,-0.230,1.090,102.22,2.01e+02,2,,5.01e+02,2.07e+00,1,1.73e+01
"1/0365396659.31429",2014-11-30T03:04:23.423,13851,411.00,79.19,79.06,"14:45:19",357.61,-0.230,1.090,101.81,2.06e+02,2,,5.26e+02,1.97e+00,2,1.82e+01
"1/0365396667.01479",2014-11-30T03:04:30.966,13851,409.00,78.74,78.60,"17:16:42",356.95,-0.220,1.090,101.39,2.65e+02,2,,8.71e+02,2.00e+00,2,1.79e+01
"1/0365396674.37065",2014-11-30T03:04:38.509,13851,407.00,78.28,78.14,"19:36:37",356.34,-0.210,1.090,100.98,3.41e+02,2,,1.44e+03,2.12e+00,1,1.68e+01
"1/0365396682.07115",2014-11-30T03:04:46.052,13851,405.00,77.82,77.67,"21:45:05",355.78,-0.200,1.090,100.56,3.53e+02,2,,1.55e+03,2.12e+00,1,1.68e+01
"1/0365396689.42767",2014-11-30T03:04:53.596,13851,403.00,77.36,77.21,"23:44:23",355.26,-0.190,1.100,100.15,3.43e+02,2,,1.46e+03,2.03e+00,1,1.76e+01